Flag for Canada Weather past 2 weeks in Happy Valley-Goose Bay, Newfoundland and Labrador, Canada

Now
41 °F

Sprinkles. Partly sunny.


Feels Like: 31 °F
Forecast: 35 / 55 °F
Wind: 23 mph from West

Location: Goose

Current Time: May 24, 2015 at 11:17:59 PM

Latest Report: May 24, 2015 at 10:00 PM


Visibility: 15 mi

Pressure: 29.70 "Hg

Humidity: 81%

Dew point: 36 °F

Location of Happy Valley-Goose BayLocation

Historic Weather in Happy Valley-Goose Bay — Graph

°F

Happy Valley-Goose Bay temperature yesterday

Maximum temperature yesterday: 39 °F (at 12:00 AM)
Minimum temperature yesterday: 34 °F (at 5:00 AM)
Average temperature yesterday: 37 °F

Past Weeks' High & Low Weather Summary

 TemperatureHumidityPressure
High68 °F (May 17, 4:00 PM)100% (May 19, 12:00 PM)30.36 "Hg (May 19, 12:00 PM)
Low27 °F (May 12, 6:00 AM)27% (May 16, 3:00 PM)29.20 "Hg (May 21, 6:00 AM)
Average41 °F69%29.85 "Hg
* Reported May 9 10:00 PM — May 24 10:00 PM, Happy Valley-Goose Bay, Weather by CustomWeather, © 2015

Note: Actual official high and low records may vary slightly from our data, if they occured in-between our weather recording intervals... More about our weather records

Advertising

Happy Valley-Goose Bay weather history for previous 24 hours

 ConditionsComfort  
Time TempWeatherWind HumidityBarometerVisibility
10:00 PM
Sun, May 24
41 °FSprinkles. Partly sunny.23 mph81%29.70 "Hg15 mi
9:00 PM45 °FSprinkles. Mostly cloudy.13 mph87%29.65 "Hg12 mi
8:00 PM48 °FSprinkles. Partly sunny.5 mph76%29.63 "Hg15 mi
7:00 PM46 °FSprinkles. Broken clouds.5 mph76%29.62 "Hg12 mi
6:00 PM48 °FSprinkles. Mostly cloudy.6 mph66%29.62 "Hg15 mi
5:00 PM50 °FMore clouds than sun.9 mph58%29.62 "Hg15 mi
4:00 PM50 °FMore clouds than sun.7 mph58%29.62 "Hg15 mi
3:00 PM48 °FMore clouds than sun.12 mph62%29.64 "Hg15 mi
2:00 PM46 °FScattered showers. Broken clouds.17 mph71%29.65 "Hg15 mi
1:00 PM45 °FSprinkles. Partly sunny.22 mph87%29.66 "Hg15 mi
12:55 PM45 °FSprinkles. Partly sunny.26 mph81%29.65 "Hg15 mi
12:00 PM48 °FBroken clouds.8 mph66%29.65 "Hg15 mi
11:00 AM45 °FPartly sunny.5 mph76%29.66 "Hg15 mi
10:00 AM41 °FMostly cloudy.7 mph87%29.67 "Hg15 mi
9:00 AM39 °FMore clouds than sun.6 mph87%29.67 "Hg15 mi
8:00 AM39 °FBroken clouds.No wind81%29.67 "Hg15 mi
7:00 AM37 °FPartly sunny.2 mph93%29.68 "Hg15 mi
6:00 AM36 °FPartly sunny.3 mph93%29.67 "Hg15 mi
5:00 AM36 °FPartly cloudy.5 mph93%29.67 "Hg15 mi
4:51 AM36 °FSprinkles. Partly cloudy.3 mph93%29.67 "Hg15 mi
4:00 AM36 °FLight snow. Partly cloudy.5 mph93%29.68 "Hg15 mi
3:00 AM36 °FLight snow. Partly cloudy.7 mph93%29.69 "Hg15 mi
2:00 AM36 °FLight snow. Overcast.5 mph93%29.69 "Hg15 mi
1:00 AM36 °FLight snow. Mostly cloudy.5 mph93%29.70 "Hg12 mi
12:00 AM36 °FLight snow. Mostly cloudy.6 mph100%29.70 "Hg15 mi
11:00 PM
Sat, May 23
37 °FLight rain. Low clouds.6 mph93%29.71 "Hg12 mi
Weather by CustomWeather, © 2015

See weather overviewHow to use our weather pages